FW0639 Weather Reports


time (UTC)temp
F
wind
direction
speed
knots
gust
knots
rain 1hr
in
rain 24hr
in
rain mn
in
humidity
%
barometer
mb
20260905015512 69 332 0.0 0.0 0.00 0.00 0.00 40 1007.0
20260905013307 71 332 0.0 0.0 0.00 0.00 0.00 38 1006.4
20260905012236 72 332 0.0 1.7 0.00 0.00 0.00 36 1006.3
20260905011248 73 332 0.0 3.5 0.00 0.00 0.00 35 1006.1
20260905005119 75 332 0.9 6.1 0.00 0.00 0.00 32 1005.7
20260905004110 75 340 0.9 5.2 0.00 0.00 0.00 34 1005.5
20260905003112 75 340 0.9 3.5 0.00 0.00 0.00 35 1005.6
20260905000939 75 342 0.9 7.8 0.00 0.00 0.00 33 1005.4
20260904235921 75 345 0.9 7.8 0.00 0.00 0.00 35 1005.2
20260904234945 76 342 0.9 6.1 0.00 0.00 0.00 35 1005.1
20260904233948 76 347 0.9 6.1 0.00 0.00 0.00 33 1005.0
20260904232922 77 3 0.9 4.3 0.00 0.00 0.00 32 1004.9
20260904230843 78 280 0.9 6.1 0.00 0.00 0.00 33 1004.7
20260904225809 79 49 1.7 8.7 0.00 0.00 0.00 31 1004.7
20260904224746 79 128 1.7 8.7 0.00 0.00 0.00 32 1004.5
20260904223801 79 272 0.9 7.0 0.00 0.00 0.00 33 1004.5
20260904220558 80 148 0.9 7.8 0.00 0.00 0.00 32 1004.1
20260904215621 80 336 1.7 5.2 0.00 0.00 0.00 30 1004.0
20260904214620 80 328 0.9 7.0 0.00 0.00 0.00 28 1003.8
20260904213614 80 359 1.7 7.0 0.00 0.00 0.00 31 1003.7
20260904212541 80 328 0.9 7.8 0.00 0.00 0.00 30 1003.7
20260904211527 80 195 0.9 7.8 0.00 0.00 0.00 30 1003.6
20260904210546 81 178 1.7 7.0 0.00 0.00 0.00 29 1003.5
20260904205543 81 344 0.9 7.0 0.00 0.00 0.00 30 1003.4
20260904204602 81 340 0.9 7.0 0.00 0.00 0.00 30 1003.3
20260904203548 81 289 0.9 3.5 0.00 0.00 0.00 31 1003.2
20260904202544 81 288 0.9 5.2 0.00 0.00 0.00 29 1003.3
20260904201513 82 279 0.9 5.2 0.00 0.00 0.00 29 1003.4
20260904195313 83 328 0.9 3.5 0.00 0.00 0.00 27 1003.2
20260904194311 82 342 0.0 2.6 0.00 0.00 0.00 29 1003.2
20260904191016 81 161 0.9 6.1 0.00 0.00 0.00 30 1003.3
20260904184917 82 143 1.7 9.6 0.00 0.00 0.00 28 1003.1
20260904183910 83 9 1.7 17.4 0.00 0.00 0.00 26 1003.0
20260904182842 85 124 4.3 17.4 0.00 0.00 0.00 20 1002.9
20260904181902 86 161 4.3 14.8 0.00 0.00 0.00 20 1002.7
20260904180841 86 213 4.3 11.3 0.00 0.00 0.00 20 1002.7
20260904175843 87 173 4.3 11.3 0.00 0.00 0.00 18 1002.7
20260904174828 86 129 3.5 10.4 0.00 0.00 0.00 19 1002.5
20260904173842 86 140 5.2 13.0 0.00 0.00 0.00 17 1002.4
20260904172838 85 123 3.5 13.0 0.00 0.00 0.00 19 1002.2
20260904171857 83 78 0.9 7.8 0.00 0.00 0.00 23 1002.1
20260904165805 76 52 0.0 3.5 0.00 0.00 0.00 36 1002.1
20260904164749 74 52 0.0 0.0 0.00 0.00 0.00 44 1002.1
20260904163733 74 52 0.0 0.0 0.00 0.00 0.00 50 1002.0
20260904162720 73 52 0.0 0.9 0.00 0.00 0.00 47 1002.0
20260904161709 71 51 0.0 0.0 0.00 0.00 0.00 47 1002.1
20260904155617 69 51 0.0 0.0 0.00 0.00 0.00 50 1002.1
20260904153457 69 52 0.0 0.0 0.00 0.00 0.00 47 1002.4
20260904152459 70 52 0.0 1.7 0.00 0.00 0.00 48 1002.4
20260904151448 70 52 0.9 6.1 0.00 0.00 0.00 46 1002.4
20260904150444 69 51 0.0 2.6 0.00 0.00 0.00 45 1002.4
20260904145421 69 346 0.9 6.1 0.00 0.00 0.00 44 1002.3
20260904144428 69 334 1.7 5.2 0.00 0.00 0.00 44 1002.4
20260904143424 67 333 0.9 5.2 0.00 0.00 0.00 44 1002.3
20260904141251 65 333 0.9 6.1 0.00 0.00 0.00 48 1002.2
20260904135200 65 333 0.0 0.0 0.00 0.00 0.00 50 1002.3
20260904134145 65 333 0.0 0.0 0.00 0.00 0.00 46 1002.4
20260904133208 65 333 0.0 1.7 0.00 0.00 0.00 45 1002.3
20260904132145 65 333 0.0 1.7 0.00 0.00 0.00 45 1002.3
20260904131138 65 333 0.0 5.2 0.00 0.00 0.00 44 1002.5
20260904130119 65 333 0.9 5.2 0.00 0.00 0.00 42 1002.4
20260904123958 65 335 0.0 6.1 0.00 0.00 0.00 39 1002.4
20260904122949 65 335 0.9 9.6 0.00 0.00 0.00 39 1002.5
20260904122013 65 335 0.9 9.6 0.00 0.00 0.00 40 1002.7
20260904121016 65 335 0.9 8.7 0.00 0.00 0.00 39 1002.8
20260904114854 65 334 2.6 10.4 0.00 0.00 0.00 38 1003.2
20260904113850 64 335 1.7 10.4 0.00 0.00 0.00 39 1003.2
20260904112902 65 336 0.0 3.5 0.00 0.00 0.00 39 1003.4
20260904111836 65 336 0.0 3.5 0.00 0.00 0.00 37 1003.5
20260904110835 65 336 0.9 3.5 0.00 0.00 0.00 37 1003.5
20260904104727 65 336 1.7 3.5 0.00 0.00 0.00 37 1003.9
20260904103704 65 337 1.7 3.5 0.00 0.00 0.00 38 1004.0
20260904102642 59 341 0.0 2.6 0.00 0.00 0.00 46 1004.0
20260904101608 58 346 0.0 0.0 0.00 0.00 0.00 52 1004.2
20260904100539 59 341 0.0 2.6 0.00 0.00 0.00 50 1004.2
20260904095517 60 340 0.0 0.0 0.00 0.00 0.00 49 1004.1
20260904093352 60 341 0.0 0.9 0.00 0.00 0.00 46 1004.1
20260904092403 58 51 0.0 0.0 0.00 0.00 0.00 51 1004.2
20260904091336 59 74 0.0 0.0 0.00 0.00 0.00 51 1004.3
20260904090325 60 342 0.0 0.0 0.00 0.00 0.00 47 1004.5
20260904085343 62 340 0.0 0.0 0.00 0.00 0.00 45 1004.5
20260904084342 62 339 0.0 0.0 0.00 0.00 0.00 44 1004.6
20260904083331 59 55 0.0 0.0 0.00 0.00 0.00 48 1004.5
20260904082335 59 72 0.0 0.0 0.00 0.00 0.00 54 1004.7
20260904081353 60 341 0.0 0.0 0.00 0.00 0.00 52 1004.6
20260904074044 60 336 0.9 6.1 0.00 0.00 0.00 48 1004.8
20260904073049 57 338 0.0 0.0 0.00 0.00 0.00 54 1004.8
20260904072020 56 118 0.0 3.5 0.00 0.00 0.00 61 1004.9
20260904070954 56 122 0.0 1.7 0.00 0.00 0.00 64 1005.0
20260904070004 56 121 0.0 0.0 0.00 0.00 0.00 64 1005.3
20260904065025 56 121 0.0 0.0 0.00 0.00 0.00 64 1005.4
20260904063955 56 124 0.0 1.7 0.00 0.00 0.00 62 1005.6
20260904063005 56 115 0.0 0.0 0.00 0.00 0.00 63 1005.4
20260904061954 56 99 0.0 0.0 0.00 0.00 0.00 63 1005.5
20260904061018 56 101 0.0 0.0 0.00 0.00 0.00 64 1005.5
20260904060012 56 110 0.0 0.9 0.00 0.00 0.00 62 1005.5
20260904055003 56 105 0.0 0.0 0.00 0.00 0.00 63 1005.6
20260904053933 57 109 0.0 0.0 0.00 0.00 0.00 63 1005.8
20260904051812 57 108 0.0 0.0 0.00 0.00 0.00 63 1006.0
20260904045733 57 110 0.0 0.0 0.00 0.00 0.00 62 1006.0
20260904044718 57 111 0.0 0.0 0.00 0.00 0.00 61 1005.9
20260904043738 57 109 0.0 0.0 0.00 0.00 0.00 61 1006.1
20260904041528 58 109 0.0 0.0 0.00 0.00 0.00 61 1006.0
20260904040512 59 118 0.0 0.0 0.00 0.00 0.00 59 1006.0
20260904035525 59 119 0.0 0.0 0.00 0.00 0.00 59 1006.1
20260904034534 59 117 0.0 0.0 0.00 0.00 0.00 59 1006.1
20260904033554 60 118 0.0 0.0 0.00 0.00 0.00 59 1006.1
20260904032613 60 116 0.0 0.0 0.00 0.00 0.00 57 1006.2
20260904031624 61 115 0.0 0.0 0.00 0.00 0.00 57 1006.2
20260904030551 61 342 0.0 0.0 0.00 0.00 0.00 57 1006.1
20260904023316 63 342 0.0 0.0 0.00 0.00 0.00 54 1005.5
20260904021137 65 340 0.0 0.0 0.00 0.00 0.00 54 1005.1